TimeCST,TemperatureF,Dew PointF,Humidity,Sea Level PressureIn,VisibilityMPH,Wind Direction,Wind SpeedMPH,Gust SpeedMPH,PrecipitationIn,Events,Conditions,WindDirDegrees,DateUTC
12:53 AM,52.0,37.9,59,30.18,10.0,South,4.6,-,N/A,,Clear,180,2012-11-10 06:53:00
1:53 AM,51.1,37.9,61,30.19,10.0,South,3.5,-,N/A,,Clear,190,2012-11-10 07:53:00
2:53 AM,48.9,37.9,66,30.19,10.0,Calm,Calm,-,N/A,,Clear,0,2012-11-10 08:53:00
3:53 AM,46.9,37.9,71,30.21,10.0,Calm,Calm,-,N/A,,Clear,0,2012-11-10 09:53:00
4:53 AM,44.1,37.0,76,30.23,10.0,Calm,Calm,-,N/A,,Clear,0,2012-11-10 10:53:00
5:53 AM,43.0,37.0,80,30.25,10.0,Calm,Calm,-,N/A,,Clear,0,2012-11-10 11:53:00
6:53 AM,48.0,37.9,68,30.26,10.0,Calm,Calm,-,N/A,,Clear,0,2012-11-10 12:53:00
7:53 AM,57.0,42.1,57,30.27,10.0,South,9.2,-,N/A,,Clear,190,2012-11-10 13:53:00
8:53 AM,62.1,43.0,50,30.27,10.0,SSW,12.7,-,N/A,,Clear,200,2012-11-10 14:53:00
9:53 AM,66.0,46.0,48,30.27,10.0,SSW,15.0,18.4,N/A,,Clear,210,2012-11-10 15:53:00
10:53 AM,68.0,46.0,45,30.25,10.0,SW,11.5,-,N/A,,Clear,220,2012-11-10 16:53:00
11:53 AM,71.1,46.9,42,30.21,10.0,SSW,12.7,-,N/A,,Clear,200,2012-11-10 17:53:00
12:53 PM,72.0,45.0,38,30.19,10.0,SSW,15.0,-,N/A,,Clear,200,2012-11-10 18:53:00
1:53 PM,73.9,44.1,34,30.17,10.0,SSW,12.7,-,N/A,,Clear,200,2012-11-10 19:53:00
2:53 PM,73.0,43.0,34,30.16,10.0,South,15.0,-,N/A,,Clear,180,2012-11-10 20:53:00
3:53 PM,71.1,44.1,38,30.17,10.0,South,9.2,-,N/A,,Clear,190,2012-11-10 21:53:00
4:53 PM,66.0,44.1,45,30.17,10.0,South,6.9,-,N/A,,Clear,170,2012-11-10 22:53:00
5:53 PM,64.9,41.0,42,30.19,10.0,South,5.8,-,N/A,,Clear,180,2012-11-10 23:53:00
6:53 PM,62.1,41.0,46,30.19,10.0,South,6.9,-,N/A,,Clear,170,2012-11-11 00:53:00
7:53 PM,61.0,41.0,48,30.20,10.0,South,5.8,-,N/A,,Clear,170,2012-11-11 01:53:00
8:53 PM,60.1,39.9,47,30.21,10.0,South,6.9,-,N/A,,Clear,180,2012-11-11 02:53:00
10:53 PM,59.0,37.9,46,30.21,10.0,South,9.2,-,N/A,,Clear,180,2012-11-11 04:53:00
11:53 PM,55.9,37.9,51,30.21,10.0,South,6.9,-,N/A,,Clear,180,2012-11-11 05:53:00